GEFSMW_850_meantemp_006.txt.gz
Temperature
22 23 22 22 21 20 20 20 20 20 19 19 19 18 18 17 17 17 17 17 17 17 17 17 18 18 18 18 17 17 16 16 16 16 15 15 15 14 14 14 14 14 14
22 22 22 21 20 20 19 19 19 19 19 19 18 18 18 17 17 17 17 17 17 17 18 18 18 18 18 18 17 17 16 16 16 16 15 15 14 14 14 14 14 14 14
22 21 21 21 20 19 18 18 18 18 18 18 17 17 17 17 17 17 17 17 17 17 17 18 18 18 18 18 18 17 17 17 16 16 16 15 14 14 14 14 14 14 14
22 21 21 20 20 19 18 17 17 17 17 17 16 16 16 16 16 17 17 17 17 17 17 18 18 18 18 18 18 17 17 17 17 16 16 16 16 15 14 14 13 13 14
22 21 20 20 19 18 17 17 16 16 16 16 16 16 16 15 16 16 16 16 17 17 17 17 17 18 18 18 17 18 18 17 17 17 16 16 16 16 15 14 13 13 13
22 21 20 19 19 18 17 17 16 16 16 15 15 15 15 15 15 15 15 16 16 16 16 16 17 17 17 17 17 17 17 17 17 17 17 16 16 16 16 15 14 13 13
22 21 20 19 19 18 17 17 17 16 16 15 15 15 15 15 15 15 15 15 16 16 16 16 16 17 17 17 17 17 17 17 16 16 16 16 16 16 16 16 14 13 13
22 21 21 20 19 18 18 17 17 16 16 15 15 15 15 15 16 16 15 15 15 15 15 16 16 16 17 17 17 16 16 16 16 16 16 16 16 16 16 16 16 14 13
22 22 21 20 19 19 18 17 17 17 16 15 15 16 16 16 16 16 15 16 16 16 15 15 16 16 16 16 16 16 16 16 16 16 16 16 16 16 16 16 16 16 14
22 21 21 20 19 19 18 17 17 16 16 16 16 16 16 16 16 16 16 16 16 17 16 16 16 16 16 16 16 16 16 16 16 16 16 16 16 16 16 16 16 16 16
22 22 21 20 19 18 18 17 16 16 16 16 16 16 16 16 16 16 16 16 16 16 16 16 16 16 16 16 16 16 16 16 16 16 16 16 16 15 15 15 15 15 15
23 22 21 20 19 18 18 17 16 16 16 16 16 16 16 16 16 16 16 16 16 16 16 16 16 16 16 16 16 16 16 16 16 16 16 16 15 15 15 15 15 15 15
23 22 21 20 20 19 18 17 17 16 16 16 16 16 16 16 16 16 16 16 16 16 16 16 16 16 16 16 16 15 15 15 16 16 16 15 15 14 14 14 15 15 15
23 22 21 20 20 19 19 18 17 17 16 16 16 16 16 16 16 16 16 16 16 16 16 16 16 16 16 15 15 15 15 15 15 15 15 15 15 14 14 14 15 15 15
22 22 22 21 20 20 19 18 17 17 17 16 16 16 16 15 15 16 16 16 16 15 15 15 15 15 15 15 15 15 15 15 15 15 15 15 15 15 14 14 15 15 15
22 22 22 21 21 20 20 19 18 17 17 16 16 15 15 15 15 15 15 15 15 15 15 15 15 15 15 15 15 15 15 15 15 15 15 15 15 15 15 15 15 15 15
22 22 21 20 20 19 19 19 19 18 17 17 16 16 15 15 15 15 15 15 15 15 15 15 15 15 14 14 15 15 15 15 15 15 15 15 15 15 15 15 15 15 15
21 21 20 19 19 18 18 18 18 18 17 17 16 16 15 15 15 15 15 15 15 15 14 14 14 14 14 14 14 15 15 15 15 15 15 15 15 15 15 15 15 15 15
21 20 19 18 17 17 18 18 18 17 17 17 16 16 16 15 15 15 15 15 15 14 14 14 13 13 14 14 14 14 15 15 15 15 14 14 15 15 15 15 15 15 15
20 19 18 17 16 16 16 16 16 16 16 16 16 16 16 15 15 15 14 14 14 14 13 13 13 13 13 13 13 14 14 14 14 14 13 13 14 14 14 14 14 14 15
18 18 17 16 16 15 15 15 15 15 14 15 15 15 15 15 14 14 14 14 13 13 13 13 12 12 13 13 13 13 13 14 14 13 13 13 13 13 13 13 13 14 14
18 16 16 15 15 14 14 14 14 13 13 13 13 14 14 14 13 13 13 13 13 13 13 12 12 12 12 13 13 13 13 13 13 13 13 13 12 13 13 12 12 12 13
16 15 15 14 14 14 14 14 13 13 12 12 12 12 12 13 13 13 13 13 12 12 12 12 12 12 12 12 12 12 13 13 13 13 13 13 13 12 12 12 12 12 12
16 15 14 14 14 14 14 13 13 12 12 12 11 11 11 11 12 12 12 12 12 12 12 12 12 12 12 12 12 12 12 12 12 12 12 12 12 12 12 12 11 11 11
16 15 15 14 14 14 13 13 13 12 12 11 11 11 11 11 11 11 12 12 12 12 12 12 12 12 12 12 12 12 12 12 12 12 12 12 12 12 11 11 11 11 11
16 16 15 14 14 14 14 13 12 12 12 11 11 11 11 11 11 11 11 11 11 11 11 11 12 12 12 12 12 12 12 11 11 11 11 11 11 11 11 11 10 10 10

GEFSMW_850_meantemp_012.txt.gz
Temperature
22 22 23 23 23 22 21 21 20 20 19 19 19 18 18 18 17 17 17 17 17 17 17 17 17 17 17 17 17 16 16 16 15 15 15 14 14 14 14 14 14 14 15
22 22 22 22 22 21 21 20 19 19 19 19 19 18 18 17 17 17 17 17 17 17 17 17 17 17 17 17 17 17 16 16 15 15 15 14 13 13 13 14 14 14 14
22 22 22 21 21 21 20 20 19 19 18 18 18 17 17 17 17 17 17 17 17 17 17 17 17 17 17 17 17 17 17 16 16 15 15 15 14 14 14 14 14 14 14
22 22 21 21 21 20 20 19 18 18 17 17 17 16 16 16 16 17 17 17 17 17 16 16 16 17 17 17 17 17 17 17 16 15 15 16 16 15 14 13 14 14 13
22 22 21 20 20 20 20 19 18 17 17 17 16 16 16 15 16 16 16 16 16 16 16 16 16 16 16 17 17 17 17 17 16 16 16 15 15 15 15 15 14 14 13
22 21 21 20 20 20 19 19 18 17 17 16 16 15 15 15 15 15 15 16 16 16 16 15 15 16 16 16 16 17 17 17 16 16 16 16 16 16 16 16 15 15 14
22 21 21 21 20 20 19 18 18 17 17 16 16 15 15 15 15 15 15 15 15 15 15 15 15 15 15 16 16 16 16 16 16 16 16 16 16 16 16 16 16 15 15
22 22 22 21 21 20 19 18 18 17 16 16 15 15 15 15 15 15 15 15 15 15 15 15 14 14 15 15 15 16 16 16 16 16 16 16 15 15 15 15 15 15 15
23 23 22 21 21 20 19 18 18 17 16 16 15 15 15 15 15 15 15 15 15 15 15 15 14 14 14 14 15 15 16 16 16 16 16 16 16 15 15 15 15 15 15
23 23 22 22 21 20 19 18 17 17 16 16 15 15 15 15 15 15 15 15 15 15 15 15 15 14 14 14 15 15 16 16 16 16 16 16 16 15 15 15 15 15 15
23 23 22 22 21 20 19 18 17 17 16 16 16 15 15 15 15 15 15 15 15 15 15 15 15 15 15 15 15 15 15 15 15 16 16 16 15 15 15 15 15 15 15
23 23 22 22 21 20 19 19 18 17 17 16 16 15 15 15 15 15 15 15 15 15 15 15 15 15 14 14 14 14 15 15 15 15 15 15 15 15 15 15 15 15 15
23 22 22 22 21 21 20 19 18 17 17 16 16 15 15 15 15 15 15 15 15 14 14 14 14 14 14 14 14 14 14 15 15 15 15 15 15 15 15 15 15 15 15
23 23 22 22 21 21 20 19 19 18 17 16 16 16 16 15 15 15 15 15 14 14 14 14 14 14 14 14 14 14 14 14 15 15 15 15 15 15 15 15 15 15 14
23 23 23 22 22 21 20 19 19 18 17 17 16 16 16 15 15 15 15 15 14 14 14 14 14 14 14 14 14 14 14 14 14 15 15 15 15 15 15 15 15 14 14
22 22 22 22 22 21 20 19 19 18 17 17 17 16 16 15 15 15 15 15 15 15 14 14 14 15 15 14 14 14 14 14 14 14 15 15 15 15 15 15 15 14 14
21 21 21 21 21 21 20 19 19 18 17 17 17 16 16 15 15 15 15 15 15 15 15 15 15 15 15 14 14 14 14 14 14 14 14 15 15 15 15 15 15 14 14
21 21 21 21 20 20 19 19 18 18 17 17 17 16 16 16 15 15 15 15 15 15 15 15 14 14 14 14 15 14 14 14 14 14 14 15 15 15 15 15 14 14 14
21 21 20 20 20 19 18 18 17 17 17 17 17 16 16 16 15 15 15 15 15 14 14 14 14 14 14 14 14 14 14 14 14 14 14 15 15 15 15 14 15 15 15
20 20 19 19 18 17 17 16 16 16 16 16 15 16 16 16 15 15 15 15 14 14 14 14 14 14 14 14 13 13 13 14 14 14 14 15 15 14 14 14 14 14 15
18 18 18 17 16 16 15 15 15 14 14 14 14 14 15 15 15 15 15 15 14 14 13 13 13 13 13 13 13 13 13 13 13 14 14 14 14 14 14 14 14 14 13
17 17 16 16 15 14 14 14 13 13 13 13 13 13 13 14 14 14 14 14 14 13 13 13 13 13 12 12 12 12 12 13 13 13 13 13 13 13 13 13 13 13 13
16 16 15 14 14 13 13 13 13 12 12 12 12 12 12 12 13 13 13 13 13 13 13 12 12 12 12 12 12 12 12 12 12 12 13 12 12 12 12 12 12 12 12
16 15 14 14 13 13 13 13 12 12 12 11 11 11 11 12 12 12 12 12 12 12 12 12 12 12 12 12 12 12 12 12 12 12 12 12 12 12 12 12 12 11 11
16 15 14 14 13 13 13 13 12 12 11 11 11 11 11 11 11 11 11 12 12 12 12 11 11 11 11 11 12 12 12 12 12 12 12 12 12 12 12 12 11 11 11
16 15 14 14 14 13 13 13 12 11 11 11 11 11 11 11 11 11 11 11 11 11 11 11 11 11 11 11 11 12 12 11 11 11 11 11 11 11 11 11 11 11 11

GEFSMW_850_meantemp_018.txt.gz
Temperature
25 23 23 23 23 22 21 21 20 19 19 19 18 18 18 18 17 17 17 17 17 16 16 16 16 16 16 16 16 15 15 15 15 15 14 14 14 14 14 14 14 15 15
25 23 22 22 22 22 21 21 20 19 19 18 18 18 18 18 17 17 17 17 17 16 16 16 16 16 16 16 16 15 15 15 15 15 15 15 14 14 14 14 14 14 14
24 23 22 22 22 21 21 21 20 20 19 18 18 18 18 18 18 17 17 17 17 16 16 16 16 16 16 16 16 16 16 15 15 16 16 16 16 15 14 14 14 14 14
23 22 22 21 21 20 21 20 20 19 19 18 17 17 17 17 17 17 17 17 17 16 16 16 16 16 16 16 16 16 16 16 15 16 16 17 17 17 15 14 14 14 14
23 22 21 21 20 20 20 19 19 19 18 17 17 17 17 17 16 16 16 16 16 16 16 16 16 16 16 16 16 16 15 15 15 15 15 16 16 17 17 16 15 14 14
22 22 21 21 20 20 20 20 19 19 18 17 17 16 16 16 16 16 16 16 16 16 16 16 16 16 16 15 15 15 15 15 15 15 15 15 16 16 17 17 16 15 15
22 22 21 20 20 20 19 19 19 18 18 17 17 16 16 16 15 15 15 15 16 16 16 16 16 15 15 15 15 15 15 15 15 15 15 15 16 16 17 17 17 16 15
22 21 21 21 20 19 19 19 18 18 17 17 16 16 16 15 15 15 15 15 15 15 15 15 15 15 15 15 14 14 14 15 15 15 15 15 15 15 15 16 16 16 16
22 22 21 21 20 19 19 19 18 17 17 17 16 16 16 15 15 15 15 15 15 15 15 15 14 14 14 14 14 14 14 14 15 15 15 15 15 15 15 15 15 15 15
23 23 22 21 20 20 19 19 18 18 17 17 16 16 16 15 15 15 15 15 14 14 14 14 14 14 13 13 13 13 13 14 14 14 14 15 15 15 15 15 15 15 15
23 23 22 21 21 20 20 19 19 18 17 17 16 16 16 15 15 15 15 15 14 14 14 14 14 13 13 13 13 13 13 13 13 14 14 14 14 15 15 15 15 15 15
22 22 22 21 21 21 20 20 19 18 18 17 16 16 16 16 15 15 15 15 14 14 14 14 14 13 13 13 13 13 13 13 13 13 13 14 14 15 15 15 15 15 15
22 22 22 21 21 21 20 20 19 19 18 17 17 16 16 16 16 15 15 15 15 14 14 14 14 14 13 13 13 13 13 13 13 13 13 14 14 14 15 15 15 15 15
22 22 21 21 21 21 20 20 19 19 18 17 17 16 16 16 16 15 15 15 15 15 14 14 14 14 14 14 13 13 13 13 13 13 13 13 14 14 14 15 15 15 15
21 21 21 21 20 20 20 19 19 19 18 18 17 16 16 16 15 15 15 15 15 14 14 14 14 14 14 14 14 14 13 13 13 13 14 14 14 14 14 14 15 15 15
21 21 21 20 20 19 19 19 19 19 18 18 17 16 16 16 16 15 15 15 15 14 14 14 14 14 14 14 14 14 14 14 14 14 14 14 14 14 14 15 15 15 15
20 19 19 19 19 19 18 18 18 18 18 17 17 16 16 16 16 15 15 15 15 14 14 14 14 14 14 14 14 14 14 14 14 14 14 14 14 14 14 14 14 15 15
18 18 18 18 18 18 18 18 18 18 17 17 16 16 16 16 16 15 15 15 14 14 14 14 14 14 14 14 14 14 14 14 14 14 13 13 14 14 14 14 14 14 15
16 17 17 18 18 18 18 18 17 17 16 16 15 15 15 15 15 15 15 15 14 14 14 14 14 14 14 14 14 14 14 14 14 13 13 13 14 14 14 14 14 14 14
16 17 17 17 18 17 17 16 16 15 15 14 14 14 14 14 14 14 14 14 14 14 14 14 14 14 13 13 14 14 13 13 13 13 13 14 14 14 14 14 14 14 14
15 15 16 17 16 15 15 15 14 13 13 13 13 13 13 13 13 14 14 14 14 14 14 14 13 13 13 13 13 13 13 13 13 13 13 13 14 14 14 14 13 13 13
15 15 15 15 14 14 14 13 13 12 12 12 12 12 12 12 12 13 13 13 13 13 13 13 13 13 13 13 13 13 13 13 12 12 13 13 14 14 13 13 13 13 13
15 14 14 14 13 13 13 13 12 12 12 11 11 11 11 12 12 12 12 12 12 12 12 12 12 12 12 12 12 13 13 12 12 12 13 13 13 13 13 13 12 12 12
15 14 14 14 13 13 13 13 12 12 11 11 11 11 11 11 11 11 11 11 11 11 11 12 12 12 12 12 12 12 12 12 12 12 12 12 12 12 12 12 12 12 12
15 14 14 14 13 13 13 13 13 12 11 11 11 11 11 11 11 11 11 11 11 11 11 11 11 11 11 12 12 12 12 12 12 12 12 12 12 11 11 11 11 11 11
15 15 14 14 14 13 13 13 13 12 11 11 11 11 11 11 11 11 11 11 11 11 11 11 11 11 11 11 12 12 12 12 12 12 12 11 11 11 11 11 11 11 11

GEFSMW_850_meantemp_024.txt.gz
Temperature
29 28 28 27 26 25 25 24 24 23 22 21 20 20 19 19 19 18 18 18 18 18 18 18 17 18 18 17 17 17 17 17 17 16 16 16 16 16 16 16 16 16 16
29 28 27 26 25 24 24 23 23 22 21 21 20 20 19 19 18 18 18 18 18 18 18 18 17 18 17 17 17 17 17 16 16 16 16 16 16 16 16 16 16 15 15
28 27 26 25 24 23 23 22 22 21 21 20 20 19 18 18 18 18 18 18 18 17 17 17 17 17 17 17 17 17 16 16 16 16 16 16 16 16 16 16 16 15 15
28 26 25 24 23 22 22 21 21 21 20 20 19 18 18 18 18 18 18 18 18 17 17 17 17 17 17 17 17 16 16 16 16 16 16 16 17 16 16 16 16 16 15
27 25 24 23 23 22 21 21 21 20 20 19 18 18 18 18 18 17 17 17 17 17 17 17 17 17 16 16 16 16 16 16 16 16 16 16 16 17 17 16 16 16 15
26 25 24 23 22 21 21 21 20 20 19 19 18 18 18 17 17 17 17 17 17 17 16 16 16 16 16 16 16 16 16 16 16 16 15 16 16 16 17 17 16 16 16
25 24 23 22 22 21 21 20 20 20 19 19 19 19 18 18 17 17 17 17 16 16 16 16 16 16 16 16 16 16 16 15 15 15 15 16 16 16 16 17 17 16 16
24 24 23 22 21 21 21 20 20 20 19 19 19 19 19 18 17 17 17 16 16 16 16 16 16 16 16 16 15 15 15 15 15 15 15 15 15 16 16 16 16 16 16
24 23 22 22 21 21 21 20 20 20 19 19 19 19 19 18 17 17 16 16 16 16 15 15 15 15 15 15 15 15 15 15 15 15 15 15 15 15 16 16 16 16 16
23 23 23 22 22 21 21 20 20 20 19 19 19 18 18 18 17 17 16 16 15 15 15 15 15 15 15 15 15 14 14 14 14 14 14 14 15 15 15 15 16 16 16
22 23 23 23 22 22 21 21 20 20 19 19 19 18 18 17 17 16 16 16 15 15 15 15 15 15 15 15 14 14 14 14 14 14 14 14 14 14 15 15 15 16 15
23 23 23 23 23 22 22 21 20 20 20 19 19 18 18 17 17 16 16 16 15 15 15 15 15 15 15 14 14 14 14 13 13 13 13 14 14 14 14 15 15 15 15
23 23 23 23 23 23 22 21 20 20 19 19 19 18 18 17 17 16 16 16 16 15 15 15 15 15 15 14 14 14 14 13 13 13 13 13 14 14 14 14 14 15 15
22 23 23 23 23 23 22 22 21 20 19 19 19 18 18 17 17 16 16 16 16 16 15 15 15 15 15 15 14 14 14 14 13 13 13 13 14 14 14 14 14 14 15
22 22 23 23 23 22 22 22 21 20 20 19 19 18 18 17 17 16 16 16 16 16 16 15 15 15 15 15 15 14 14 14 14 14 14 14 14 13 14 14 14 14 14
21 21 22 22 22 21 21 21 21 20 20 19 18 18 18 17 17 16 16 16 16 15 16 16 15 15 15 15 15 14 14 14 14 14 14 14 14 14 14 14 14 14 14
18 19 19 20 20 20 20 20 19 19 19 19 18 18 17 17 16 16 16 16 15 15 15 15 15 15 15 15 15 15 14 14 14 14 14 14 14 14 14 14 14 14 14
17 17 18 18 19 19 19 19 18 18 18 18 17 17 16 16 15 15 15 15 15 15 15 15 15 15 15 15 15 15 15 15 14 14 14 14 14 14 14 14 13 13 13
16 17 17 17 17 18 18 18 17 17 17 16 16 15 15 15 15 14 14 14 15 15 15 15 15 15 15 15 15 15 15 15 15 14 14 14 14 14 14 14 13 13 13
16 16 16 16 16 16 16 16 15 15 14 14 14 14 14 14 13 13 13 14 14 14 14 14 14 14 14 15 15 15 15 15 15 14 14 14 14 14 14 14 13 13 13
16 16 15 15 16 15 15 15 14 13 13 13 13 13 13 13 13 13 13 13 13 13 13 14 14 14 14 14 14 14 14 14 14 14 14 14 14 14 14 14 13 13 13
16 15 15 15 15 15 14 14 13 13 13 12 12 12 12 12 12 12 12 12 12 13 13 13 13 13 13 14 14 14 14 14 14 13 13 13 14 13 13 14 14 13 13
16 15 15 15 15 14 14 13 13 13 13 12 12 12 12 12 12 11 11 11 11 12 12 12 12 13 13 13 13 13 13 13 13 13 13 13 13 13 13 13 13 13 13
16 16 15 15 15 14 14 13 13 13 13 13 12 12 12 11 11 11 11 11 11 11 11 12 12 12 12 12 12 13 13 13 13 13 13 13 13 13 13 13 12 12 12
16 16 16 16 15 15 14 14 13 13 13 13 13 12 12 11 11 11 11 11 11 11 11 11 12 12 12 12 12 12 12 12 12 12 12 12 12 12 12 12 12 12 12
17 16 16 16 16 15 14 14 13 13 13 13 12 12 12 11 11 11 11 11 11 11 11 11 11 12 12 12 12 12 12 12 12 12 12 12 12 12 11 11 11 11 11

GEFSMW_850_meantemp_030.txt.gz
Temperature
26 26 26 26 25 25 24 24 23 22 22 21 21 20 20 20 19 19 19 19 18 18 18 18 17 17 17 17 17 17 17 17 17 16 16 16 16 16 16 16 16 16 16
26 26 26 26 25 25 24 24 23 23 22 21 21 21 20 20 19 19 19 18 18 18 18 18 17 17 17 17 17 17 17 17 16 16 16 16 15 15 15 15 15 15 15
25 26 26 26 25 25 24 24 23 22 22 21 21 20 19 19 19 19 18 18 18 18 18 17 17 17 17 17 17 17 17 17 17 16 16 16 16 16 15 15 15 15 15
25 25 25 25 25 24 24 23 23 22 22 21 20 20 20 19 19 19 18 18 17 17 17 17 17 17 17 17 17 17 17 17 17 16 16 16 16 16 15 15 15 15 15
24 24 24 24 23 23 23 22 22 22 21 21 20 20 19 19 18 18 18 18 17 17 17 17 17 17 17 17 17 17 17 17 17 16 16 16 16 16 16 15 15 15 15
22 22 22 22 22 22 22 22 22 21 21 21 20 20 19 19 18 18 18 18 17 17 17 17 17 17 16 16 16 16 16 16 16 16 16 16 16 16 16 16 16 16 15
20 21 21 22 22 22 22 21 21 21 21 21 20 19 19 18 18 18 18 17 17 17 17 17 16 16 16 16 16 16 16 16 16 16 16 16 16 16 16 15 15 15 15
18 19 20 21 22 22 22 22 22 22 21 20 20 19 19 18 18 18 17 17 17 17 16 16 16 16 16 16 16 16 16 16 15 15 15 15 15 15 15 15 15 15 15
17 17 18 19 21 21 21 22 21 21 21 20 19 19 18 18 18 17 17 17 17 16 16 16 16 16 16 16 15 15 15 15 15 15 15 15 15 15 15 15 15 15 15
16 17 18 18 20 20 21 21 21 21 20 20 19 19 18 18 18 17 17 17 17 16 16 16 16 16 15 15 15 15 15 15 15 15 15 14 14 14 14 14 15 15 15
16 17 18 18 19 20 20 20 20 20 20 20 19 19 18 18 18 18 17 17 17 16 16 16 16 16 15 15 15 15 15 14 14 14 14 14 14 14 14 14 14 14 15
17 17 18 19 19 20 20 20 20 20 20 19 19 18 18 18 18 18 17 17 16 16 16 16 16 16 15 15 15 15 14 14 14 14 14 14 14 14 13 13 14 14 14
17 18 19 19 19 20 20 20 20 20 20 19 19 18 18 18 18 18 17 17 16 16 16 16 16 16 15 15 15 15 14 14 14 14 14 13 13 13 13 13 13 13 13
15 17 18 19 19 19 19 19 19 19 19 19 19 18 18 18 17 17 17 17 16 16 16 15 15 15 15 15 15 15 14 14 14 14 13 13 13 13 13 13 13 13 13
15 16 17 18 18 19 19 19 19 19 18 18 18 17 17 17 17 17 17 16 16 16 15 15 15 15 15 15 15 15 15 14 14 14 13 13 13 13 13 13 13 13 13
14 15 16 17 17 17 18 18 18 18 18 17 17 17 16 16 16 16 16 16 16 16 15 15 15 15 15 15 15 15 15 14 14 14 14 13 13 13 13 13 13 13 13
14 15 15 16 16 16 17 17 17 17 17 17 16 16 16 16 16 16 16 16 15 15 15 15 15 15 15 15 15 15 15 15 14 14 14 14 14 13 13 13 13 13 13
15 15 15 15 15 15 16 16 16 16 15 15 15 15 15 15 15 15 15 15 15 15 15 15 15 15 15 15 15 15 15 15 14 14 14 14 14 14 14 13 13 13 13
15 15 15 15 15 15 15 15 15 15 15 14 14 14 14 14 14 14 14 14 14 14 14 14 15 15 15 15 15 14 14 14 14 14 14 14 14 14 14 14 13 13 13
15 15 15 15 15 15 14 14 14 14 13 13 13 13 13 13 13 13 13 13 13 13 13 14 14 14 14 14 14 14 14 14 14 14 14 14 14 14 14 14 13 13 13
15 15 15 15 15 14 14 14 13 13 13 12 12 12 12 12 12 12 12 12 12 12 13 13 13 14 14 14 14 14 14 14 14 14 14 14 14 14 14 13 13 13 13
15 15 15 15 14 14 14 14 13 13 12 12 12 12 12 12 12 12 12 12 12 12 12 12 13 13 13 13 13 13 14 13 13 13 13 13 13 13 13 13 13 13 13
15 15 15 15 15 14 14 14 13 13 13 12 12 12 12 12 11 11 11 12 12 12 12 12 12 12 13 13 13 13 13 13 13 13 13 13 13 13 13 13 13 13 13
15 15 15 15 15 15 14 14 13 13 13 12 12 12 11 11 11 11 11 11 12 12 12 12 12 12 12 12 12 12 12 12 12 12 12 12 13 12 12 12 12 12 12
16 16 15 15 15 15 14 14 13 13 12 12 12 12 11 11 11 11 11 11 11 11 11 11 11 11 11 11 11 12 12 12 12 12 12 12 12 12 12 12 12 12 11
15 16 16 15 15 15 15 14 14 13 13 12 12 12 11 11 11 11 11 11 10 10 11 11 11 11 11 11 11 11 12 12 12 12 12 12 12 12 11 11 11 11 11

GEFSMW_850_meantemp_036.txt.gz
Temperature
21 22 23 23 23 23 23 23 23 22 22 21 21 20 20 20 19 19 19 18 18 18 18 17 17 17 17 17 17 17 16 16 16 16 16 16 16 16 15 15 15 16 16
20 22 23 23 23 24 24 24 23 23 22 22 21 21 20 20 19 19 19 18 18 18 18 17 17 17 17 17 17 17 16 16 16 16 16 16 15 15 15 15 15 15 15
18 21 22 23 23 24 24 24 23 23 22 22 21 20 20 20 19 19 19 18 18 18 17 17 17 17 17 17 17 17 16 16 16 16 16 16 16 16 16 16 15 15 15
17 19 21 22 22 23 23 23 22 22 22 21 20 20 20 20 19 19 18 18 18 17 17 17 17 17 17 17 16 16 16 16 16 15 15 16 16 16 16 16 15 15 15
16 18 19 20 21 21 21 21 21 20 20 20 20 19 19 19 19 18 18 18 17 17 17 17 17 17 16 16 16 16 16 16 16 15 15 15 15 15 16 16 16 15 15
16 17 18 19 19 20 20 20 19 19 19 19 19 18 18 18 18 18 18 17 17 17 17 17 16 16 16 16 16 16 16 16 15 15 15 15 15 15 15 16 16 16 16
15 16 16 17 17 17 18 18 18 18 18 18 18 18 18 18 18 17 17 17 17 17 17 16 16 16 16 16 16 16 16 15 15 15 15 15 15 15 15 15 15 16 15
14 15 15 16 16 16 17 17 17 17 17 17 18 18 18 18 18 17 17 17 17 16 16 16 16 16 16 16 16 15 15 15 15 15 15 15 15 15 15 15 15 15 15
14 14 15 15 16 16 16 16 16 17 17 17 18 18 18 18 17 17 17 17 16 16 16 16 16 16 16 15 15 15 15 15 15 15 14 14 15 14 14 14 14 14 15
14 14 15 15 16 16 16 16 16 17 17 18 18 18 18 17 17 17 17 16 16 16 16 16 16 16 16 15 15 15 15 15 14 14 14 14 14 14 14 14 14 14 14
13 14 14 15 15 16 16 16 17 17 17 17 18 18 18 17 17 17 16 16 16 16 16 16 16 16 16 15 15 15 15 14 14 14 14 14 14 14 14 14 14 14 14
13 14 14 15 15 16 16 17 17 17 17 17 17 17 17 17 17 17 16 16 16 16 16 15 15 15 15 15 15 15 14 14 14 14 13 13 13 13 13 13 13 13 13
13 13 14 14 15 16 16 17 17 17 17 17 17 17 17 17 17 17 16 16 16 16 15 15 15 15 15 15 15 15 14 14 14 14 13 13 13 13 13 13 13 13 13
12 13 13 14 15 15 16 17 17 17 17 17 17 17 17 17 17 17 16 16 16 16 15 15 15 15 15 15 15 14 14 14 14 14 13 13 13 13 13 13 13 13 13
12 12 13 13 14 15 15 16 16 17 17 17 17 17 16 16 16 16 16 16 16 16 15 15 15 15 15 15 14 14 14 14 14 14 13 13 13 13 13 13 13 12 12
12 13 13 13 14 14 15 15 16 16 16 16 16 16 16 16 16 16 16 16 16 16 15 15 15 15 15 15 14 14 14 14 14 14 14 13 13 13 13 13 13 12 12
12 13 13 13 13 14 14 14 14 15 15 15 15 15 15 15 15 15 15 15 15 15 15 15 15 15 15 15 14 14 14 14 14 14 14 14 13 13 13 13 13 13 12
13 13 13 13 13 13 13 13 13 14 14 14 14 14 14 14 14 14 14 14 15 14 14 14 14 14 14 14 14 14 14 14 14 14 14 14 14 14 13 13 13 13 13
13 13 13 13 13 13 13 13 13 13 13 13 13 13 13 13 13 13 13 13 13 13 13 13 14 14 14 14 14 14 14 14 14 14 14 14 14 14 14 14 13 13 13
14 14 14 14 13 13 13 13 12 12 12 12 12 12 12 12 12 12 12 12 12 12 12 12 13 13 13 13 14 14 14 14 14 14 14 14 14 14 14 14 14 13 13
14 14 14 14 14 13 13 13 12 12 12 12 12 12 12 12 11 11 11 12 12 12 12 12 12 12 13 13 13 13 13 14 14 13 14 14 14 14 13 13 13 13 13
14 14 14 14 14 14 13 13 12 12 12 12 11 11 11 11 11 11 11 11 12 12 12 12 12 12 12 12 13 13 13 13 13 13 13 13 13 13 13 13 13 13 13
15 15 15 14 14 14 14 13 13 12 12 12 11 11 11 11 11 11 11 11 11 11 11 11 11 11 12 12 12 12 12 12 12 13 13 13 13 13 13 13 13 13 13
15 15 15 15 15 14 14 14 13 13 12 12 11 11 11 11 11 11 11 11 11 11 11 11 11 11 11 11 12 12 12 12 12 12 12 12 12 12 12 12 12 12 12
15 15 15 15 15 15 14 14 13 13 12 12 12 11 11 11 11 11 10 10 10 10 10 10 10 10 11 11 11 11 11 12 12 12 12 12 12 12 12 12 11 11 11
15 15 15 15 15 15 15 14 14 13 13 12 12 11 11 11 11 10 10 10 10 10 10 10 10 10 10 10 11 11 11 11 11 11 11 11 11 11 11 11 11 11 11